Location: *
(46.5094°N, 2.7122°E)
Time: 12:16:59
(UTC+00:00)

Daily predictions for brighter satellites

Satellite Brightness Start Highest point End
(mag) Time Altitude Azimuth Time Altitude Azimuth Time Altitude Azimuth
Cosmos 1437 2.6 16:49:48 10° NNW 16:52:54 88° WSW 16:55:58 10° S
BREEZE-M DEB (TANK) 2.9 16:48:53 10° W 16:53:57 56° NNW 16:56:22 10° ENE
Cosmos 1633 4.3 16:52:25 10° NE 16:54:25 14° ENE 16:56:25 10° ESE
Cosmos 2219 3.3 16:49:54 10° NNW 16:55:27 57° ENE 17:00:57 10° SE
CZ-4B R/B 3.9 16:53:28 10° NNW 16:56:06 21° WNW 16:58:43 10° WSW
Cosmos 1869 4.4 16:53:38 10° SE 16:56:53 25° E 17:00:07 10° NE
TELKOM 3 2.8 16:56:36 10° WNW 16:58:48 54° NNE 17:00:51 10° E
Cosmos 2369 Rocket 4.2 16:54:33 10° W 16:58:55 23° NW 17:03:18 10° N
USA 215 3.9 16:53:47 10° ENE 16:59:42 38° N 17:05:37 10° NW
CZ-4 R/B 2.8 16:57:33 10° ESE 17:00:30 19° ENE 17:03:26 10° NNE
Cosmos 2233 Rocket 4.0 16:54:53 10° N 17:01:14 70° E 17:07:29 10° SSE
USA 229 DEB 4.1 16:58:22 10° S 17:04:26 42° ESE 17:10:47 10° NE
USA 229 4.1 16:58:30 10° S 17:04:34 42° ESE 17:10:52 10° NE
Cosmos 1743 Rocket 3.6 17:02:03 10° N 17:06:25 89° WSW 17:10:47 10° S
Cosmos 1805 Rocket 4.0 17:02:37 10° N 17:06:42 38° ENE 17:10:46 10° SE
Envisat 3.4 17:04:18 10° SE 17:09:01 41° ENE 17:13:48 10° N
NOSS 3-1 (A) 4.4 17:05:43 10° SSE 17:10:04 24° ESE 17:14:23 12° ENE
NOSS 3-1 (C) 3.9 17:05:39 10° S 17:10:41 38° ESE 17:16:23 10° NE
AQUARIUS 4.1 17:06:15 10° SSE 17:10:44 77° ENE 17:15:14 10° N
Cosmos 1455 4.0 17:08:30 10° SW 17:11:55 32° WNW 17:15:21 10° N
Cosmos 1980 Rocket 4.0 17:14:04 10° ESE 17:14:49 10° E 17:14:49 10° E
YAOGAN 6 3.6 17:12:33 10° ESE 17:15:24 24° ENE 17:18:15 10° NNE
Cosmos 2227 Rocket 2.3 17:10:54 10° NNW 17:16:28 52° ENE 17:21:58 10° SE
Cosmos 2297 Rocket 2.3 17:11:12 10° NNW 17:16:47 56° ENE 17:22:20 10° SE
Okean O Rocket 3.9 17:13:18 10° SSW 17:17:07 28° W 17:20:56 10° NW
Cosmos 2344 3.9 17:10:29 10° SW 17:17:57 69° NW 17:26:21 10° NE
CORIOLIS 4.1 17:13:14 10° SSE 17:18:39 83° ENE 17:24:06 10° NNW
Cosmos 1464 Rocket 4.3 17:17:01 10° N 17:22:50 42° ENE 17:28:35 10° SE
SeaSat 1 2.4 17:19:12 10° SE 17:24:07 74° ENE 17:29:03 10° NNW
H-2A R/B 3.1 17:26:38 10° S 17:30:29 68° WSW 17:34:18 10° NNW
Cosmos 1500 Rocket 4.4 17:27:04 10° NNW 17:31:22 53° W 17:35:35 10° S
Cosmos 2369 4.5 17:28:08 10° SSE 17:32:58 30° ESE 17:36:23 17° NE
Meteor 2-20 4.4 17:27:30 10° S 17:33:35 72° E 17:39:43 10° NNE
Geosat 3.9 17:31:40 10° NNE 17:36:45 81° ESE 17:41:46 10° SSW
Cosmos 1633 Rocket 3.6 17:32:50 10° N 17:36:54 35° ENE 17:40:57 10° SE
Meteor 2-2 Rocket 4.3 17:32:32 10° S 17:38:25 86° E 17:44:13 10° NNE
Genesis I 3.6 17:34:48 10° SW 17:38:47 65° NW 17:42:05 15° NNE
Cosmos 2263 Rocket 3.8 17:37:38 10° N 17:40:47 15° NE 17:41:11 15° NE
SMAP 4.1 17:38:14 10° S 17:42:43 48° W 17:47:15 10° NNW
Cosmos 2082 3.8 17:38:03 10° NNW 17:43:35 53° ENE 17:49:03 10° SE
Cosmos 1680 Rocket 4.3 17:39:32 10° SSE 17:43:56 28° E 17:45:41 23° ENE
COSMO-SKYMED 1 2.7 17:40:19 10° NNE 17:44:34 51° E 17:48:48 10° S
Cosmos 1862 3.6 17:43:00 10° N 17:46:50 43° ENE 17:50:38 10° SSE
ERBS 3.2 17:43:59 10° SSW 17:46:57 30° SE 17:47:20 29° ESE
Cosmos 1666 Rocket 3.6 17:43:14 10° N 17:47:33 53° ENE 17:51:48 10° SSE
Cosmos 2084 4.4 17:43:58 10° NW 17:48:07 49° WSW 17:52:11 10° SSE
Cosmos 1607 4.0 17:42:31 10° NW 17:48:45 82° WSW 17:55:01 10° SSE
Sich 1 2.9 17:46:55 10° N 17:51:17 79° E 17:55:38 10° SSE
CENTAUR R/B 4.4 17:46:27 10° NW 17:51:44 21° N 17:56:08 14° NE
Ariane Rocket 3.8 17:51:23 26° ENE 17:52:06 27° ENE 17:56:21 10° N
Cosmos 2278 4.4 17:48:08 10° SSE 17:53:05 32° ESE 17:54:51 27° ENE
Cosmos 1328 Rocket 4.2 17:49:42 10° SSE 17:53:40 33° E 17:54:25 31° ENE
Cosmos 1697 Rocket 3.1 17:49:08 10° S 17:54:22 40° ESE 17:57:08 24° NE
H-2A R/B 4.2 18:00:03 11° NNE 18:00:03 11° NNE 18:00:22 10° NNE
ATLAS 5 CENTAUR R/B 2.5 17:53:15 10° NW 17:59:02 77° SW 18:05:41 10° SSE
Cosmos 1151 Rocket 3.6 17:55:39 10° SSE 17:59:23 34° E 17:59:23 34° E
BREEZE-M DEB (TANK) 3.1 18:00:24 10° SW 18:05:27 35° SSE 18:06:06 32° SE
Cosmos 923 Rocket 4.0 18:02:53 10° S 18:08:00 59° ESE 18:10:51 26° NE
ATLAS 3B R/B 4.4 18:04:15 10° NW 18:08:33 17° N 18:11:27 14° NNE
SKYMED 3 4.5 18:04:18 10° NNE 18:08:40 90° NNW 18:13:02 10° SSW
Cosmos 1356 Rocket 4.0 18:09:12 10° SSW 18:13:17 59° WNW 18:17:28 10° N
YAOGAN 1 2.4 18:09:05 10° SSE 18:13:24 81° ENE 18:17:45 10° NNW
Cosmos 1624 Rocket 4.4 18:08:31 10° N 18:13:32 39° ENE 18:13:48 39° ENE
Cosmos 2056 Rocket 4.0 18:08:48 10° N 18:13:20 36° NE 18:13:20 36° NE
GEOS 3 Rocket 4.4 18:09:56 15° NNE 18:13:59 47° NW 18:19:00 10° WSW
Cosmos 1470 Rocket 3.8 18:13:59 10° N 18:17:57 50° NE 18:17:57 50° NE
Cosmos 2346 Rocket 4.5 18:12:42 10° S 18:18:48 58° E 18:24:53 10° NNE
Cosmos 2034 Rocket 3.9 18:12:43 10° N 18:19:06 79° E 18:25:29 10° SSE
Lacrosse 4 Rocket 1.1 18:16:51 10° SSW 18:20:55 69° ESE 18:21:00 69° ESE
USA 116 4.1 18:21:51 20° NNE 18:25:04 86° E 18:30:04 10° SSW
NOAA 11 4.0 18:20:48 10° SSE 18:26:11 71° ENE 18:31:36 10° N
Meteor 2-11 Rocket 4.3 18:20:44 10° N 18:26:53 86° E 18:33:02 10° S
Cosmos 1656 3.9 18:23:38 10° SW 18:29:10 67° WNW 18:33:00 20° NNE
Cosmos 1633 3.7 18:26:02 10° NNW 18:29:31 43° W 18:32:59 10° SSW
CSL-04 Debris 4.4 18:25:58 10° S 18:31:27 73° WSW 18:36:59 10° NNW
SKYMED 2 4.4 18:28:28 10° N 18:32:42 51° WNW 18:36:54 10° SSW
CZ-4 R/B 2.5 18:31:15 10° S 18:35:15 44° W 18:39:13 10° NNW
DMSP B5D1-3 4.4 18:37:40 46° NNE 18:39:12 76° ESE 18:44:21 10° S
Cosmos 724 4.1 18:33:29 10° NW 18:39:22 78° NE 18:40:39 56° SE
Tsikada Rocket 3.9 18:34:30 10° S 18:40:48 74° E 18:47:14 10° NNE
Cosmos 1634 Rocket 4.1 18:35:18 10° N 18:40:43 50° NE 18:40:43 50° NE
USA 215 3.2 18:40:26 50° E 18:42:09 68° NNE 18:48:38 10° NW
Cosmos 1816 Rocket 4.4 18:41:50 10° S 18:48:11 87° E 18:54:36 10° N
CSL-04 Rocket 4.4 18:45:21 10° S 18:50:34 51° W 18:55:45 10° NNW
Cosmos 1939 Rocket 4.1 18:52:15 37° NNW 18:52:15 37° NNW 18:54:53 10° NNW
NOSS 2-3 (E) 4.0 18:48:12 10° SW 18:51:48 62° SSW 18:51:48 62° SSW
USA 229 DEB 4.3 18:48:53 10° WSW 18:55:18 50° NW 18:58:48 28° NNE
USA 229 4.3 18:48:59 10° WSW 18:55:24 51° NW 18:58:52 28° NNE
Cosmos 1980 Rocket 2.5 18:52:14 10° SSW 18:56:39 54° S 18:56:39 54° S
Cosmos 2227 Rocket 4.2 18:55:32 10° NW 19:00:12 27° WSW 19:04:50 10° SSW
NOSS 3-1 (A) 3.6 18:54:39 10° SW 19:00:14 66° NW 19:01:51 48° NNE
Cosmos 2297 Rocket 4.3 18:55:56 10° NW 19:00:25 25° WSW 19:04:54 10° SSW
NOSS 3-1 (C) 4.2 18:55:54 10° WSW 19:01:22 47° NW 19:03:50 32° NNE
NOSS 2-3 (D) 4.4 18:57:37 10° SW 19:00:45 48° SW 19:00:45 48° SW
Cosmos 1371 Rocket 4.1 18:58:30 10° NNW 19:03:21 72° WNW 19:03:21 72° WNW
Cosmos 2263 Rocket 3.6 19:20:16 10° NNW 19:22:54 28° NNW 19:22:54 28° NNW
Ariane Rocket 4.1 19:31:36 41° WNW 19:31:36 41° WNW 19:35:44 10° NNW
H-2A R/B 4.4 19:40:41 15° NNW 19:40:41 15° NNW 19:41:32 10° NNW
Cosmos 1697 Rocket 3.9 19:33:11 10° WSW 19:38:23 36° NW 19:38:55 36° NW
CENTAUR R/B 4.1 19:38:08 10° NW 19:43:18 31° N 19:43:18 31° N
ATLAS 3B R/B 4.4 19:55:55 10° NNW 19:58:41 21° N 19:58:41 21° N
